QTR8Y OBBI-OTHH

Flight info

Callsign QTR8Y
Flight time 0h 28m
Altitude 11000
Route BHR DCT ASTAD N318 LUBET DCT HAYYA
Aircraft B789/H-SDE1E2E3FGHIJ2J3J4J5M1RWXY/LB1D1

Departure

Time 2026-05-08 03:55
Airport Bahrain International Airport (OBBI)

Arrival

Time 2026-05-08 04:24
Airport Hamad International Airport (OTHH)
Time Latitude Longitude Altitude Speed Heading
2026-05-08 03:26 26.26891 50.62940 25 ft 0 kts 212°
2026-05-08 03:33 26.26899 50.62946 25 ft 2 kts 211°
2026-05-08 03:34 26.26913 50.62956 30 ft 2 kts 213°
2026-05-08 03:34 26.26927 50.62966 30 ft 2 kts 214°
2026-05-08 03:34 26.26941 50.62975 30 ft 2 kts 198°
2026-05-08 03:34 26.26958 50.62977 30 ft 2 kts 167°
2026-05-08 03:35 26.26974 50.62970 30 ft 2 kts 151°
2026-05-08 03:35 26.26987 50.62960 30 ft 2 kts 141°
2026-05-08 03:35 26.27009 50.62932 30 ft 2 kts 122°
2026-05-08 03:36 26.27013 50.62924 30 ft 1 kts 120°
2026-05-08 03:37 26.27010 50.62930 30 ft 2 kts 121°
2026-05-08 03:37 26.27000 50.62947 28 ft 3 kts 123°
2026-05-08 03:37 26.26983 50.62976 28 ft 5 kts 123°
2026-05-08 03:38 26.26960 50.63016 26 ft 7 kts 123°
2026-05-08 03:38 26.26929 50.63069 29 ft 9 kts 123°
2026-05-08 03:38 26.26909 50.63132 27 ft 7 kts 71°
2026-05-08 03:38 26.26945 50.63170 29 ft 8 kts 39°
2026-05-08 03:39 26.26959 50.63213 26 ft 6 kts 100°
2026-05-08 03:39 26.26940 50.63256 30 ft 7 kts 123°
2026-05-08 03:39 26.26910 50.63306 26 ft 9 kts 123°
2026-05-08 03:39 26.26876 50.63367 27 ft 10 kts 122°
2026-05-08 03:40 26.26850 50.63413 29 ft 11 kts 122°
2026-05-08 03:40 26.26788 50.63520 29 ft 13 kts 123°
2026-05-08 03:40 26.26753 50.63579 28 ft 14 kts 123°
2026-05-08 03:40 26.26699 50.63673 29 ft 15 kts 122°
2026-05-08 03:41 26.26639 50.63780 30 ft 17 kts 122°
2026-05-08 03:41 26.26575 50.63889 28 ft 13 kts 123°
2026-05-08 03:41 26.26550 50.63932 28 ft 0 kts 123°
2026-05-08 03:51 26.26548 50.63936 28 ft 1 kts 123°
2026-05-08 03:51 26.26539 50.63950 28 ft 3 kts 123°
2026-05-08 03:51 26.26524 50.63978 27 ft 5 kts 122°
2026-05-08 03:51 26.26501 50.64018 27 ft 7 kts 122°
2026-05-08 03:52 26.26470 50.64072 29 ft 9 kts 122°
2026-05-08 03:52 26.26433 50.64137 26 ft 11 kts 122°
2026-05-08 03:52 26.26389 50.64213 27 ft 12 kts 123°
2026-05-08 03:52 26.26338 50.64299 28 ft 14 kts 123°
2026-05-08 03:53 26.26281 50.64397 28 ft 16 kts 122°
2026-05-08 03:53 26.26219 50.64505 29 ft 17 kts 122°
2026-05-08 03:53 26.26153 50.64620 28 ft 18 kts 124°
2026-05-08 03:53 26.26081 50.64743 29 ft 19 kts 123°
2026-05-08 03:54 26.26017 50.64878 27 ft 20 kts 99°
2026-05-08 03:54 26.26077 50.64993 26 ft 17 kts 28°
2026-05-08 03:54 26.26164 50.64966 27 ft 13 kts 303°
2026-05-08 03:54 26.26222 50.64866 29 ft 26 kts 301°
2026-05-08 03:55 26.26437 50.64490 24 ft 90 kts 303°
2026-05-08 03:55 26.26888 50.63707 26 ft 148 kts 303°
2026-05-08 03:55 26.27504 50.62623 366 ft 179 kts 306°
2026-05-08 03:55 26.28250 50.61338 766 ft 217 kts 307°
2026-05-08 03:56 26.29088 50.59919 1731 ft 215 kts 313°
2026-05-08 03:56 26.30140 50.58644 2125 ft 242 kts 321°
2026-05-08 03:56 26.31408 50.57447 1810 ft 231 kts 336°
2026-05-08 03:56 26.32791 50.56755 2093 ft 206 kts 346°
2026-05-08 03:57 26.34224 50.56575 2738 ft 215 kts
2026-05-08 03:57 26.35808 50.56608 3408 ft 238 kts
2026-05-08 03:57 26.37496 50.56685 4104 ft 247 kts
2026-05-08 03:57 26.39121 50.57357 4806 ft 262 kts 40°
2026-05-08 03:58 26.40075 50.59081 5564 ft 272 kts 75°
2026-05-08 03:58 26.40035 50.61216 6296 ft 284 kts 99°
2026-05-08 03:58 26.39549 50.63361 6998 ft 284 kts 106°
2026-05-08 03:58 26.38957 50.65475 7705 ft 286 kts 108°
2026-05-08 03:59 26.38359 50.67589 8419 ft 287 kts 108°
2026-05-08 03:59 26.37774 50.69740 9168 ft 288 kts 108°
2026-05-08 03:59 26.37219 50.71885 9906 ft 289 kts 108°
2026-05-08 03:59 26.36706 50.73940 10574 ft 292 kts 108°
2026-05-08 04:00 26.36147 50.76157 10996 ft 303 kts 108°
2026-05-08 04:00 26.35539 50.78504 11024 ft 333 kts 108°
2026-05-08 04:00 26.34856 50.81097 11031 ft 358 kts 108°
2026-05-08 04:00 26.34161 50.83714 11031 ft 363 kts 108°
2026-05-08 04:01 26.33448 50.86393 11028 ft 366 kts 108°
2026-05-08 04:01 26.32709 50.89157 11027 ft 367 kts 108°
2026-05-08 04:01 26.31976 50.91892 11027 ft 367 kts 108°
2026-05-08 04:01 26.31244 50.94617 11028 ft 367 kts 108°
2026-05-08 04:02 26.30312 50.97255 11023 ft 366 kts 116°
2026-05-08 04:02 26.29097 50.99751 11020 ft 365 kts 124°
2026-05-08 04:02 26.27564 51.02004 11018 ft 365 kts 130°
2026-05-08 04:02 26.25938 51.04131 11017 ft 365 kts 131°
2026-05-08 04:03 26.24353 51.06387 11019 ft 365 kts 122°
2026-05-08 04:03 26.21960 51.11362 11044 ft 367 kts 120°
2026-05-08 04:03 26.20677 51.13822 11047 ft 367 kts 121°
2026-05-08 04:04 26.19414 51.16301 11048 ft 368 kts 120°
2026-05-08 04:04 26.18178 51.18790 11047 ft 368 kts 120°
2026-05-08 04:04 26.16932 51.21281 11044 ft 368 kts 120°
2026-05-08 04:04 26.15675 51.23764 11045 ft 368 kts 120°
2026-05-08 04:05 26.14416 51.26251 11046 ft 369 kts 120°
2026-05-08 04:05 26.13160 51.28747 11042 ft 369 kts 120°
2026-05-08 04:05 26.11906 51.31235 11043 ft 370 kts 120°
2026-05-08 04:05 26.10644 51.33732 11041 ft 370 kts 120°
2026-05-08 04:06 26.09371 51.36223 11040 ft 369 kts 122°
2026-05-08 04:06 26.07681 51.38347 11041 ft 370 kts 142°
2026-05-08 04:06 26.05430 51.39712 11043 ft 370 kts 162°
2026-05-08 04:06 26.02889 51.40164 11044 ft 371 kts 179°
2026-05-08 04:07 26.00303 51.40167 11039 ft 372 kts 180°
2026-05-08 04:07 25.97713 51.40127 11039 ft 372 kts 180°
2026-05-08 04:07 25.95123 51.40084 11039 ft 373 kts 180°
2026-05-08 04:07 25.92534 51.40066 11042 ft 373 kts 180°
2026-05-08 04:08 25.89942 51.40052 11040 ft 373 kts 180°
2026-05-08 04:08 25.87336 51.40027 11038 ft 373 kts 180°
2026-05-08 04:08 25.84742 51.40000 11035 ft 374 kts 180°
2026-05-08 04:08 25.82174 51.39976 11039 ft 373 kts 180°
2026-05-08 04:09 25.79574 51.39955 11037 ft 373 kts 180°
2026-05-08 04:09 25.76972 51.39932 11030 ft 374 kts 180°
2026-05-08 04:09 25.74370 51.39908 11031 ft 374 kts 180°
2026-05-08 04:09 25.71766 51.39885 11029 ft 374 kts 180°
2026-05-08 04:10 25.69166 51.39862 11025 ft 374 kts 180°
2026-05-08 04:10 25.66522 51.39838 11030 ft 374 kts 180°
2026-05-08 04:10 25.63954 51.39815 11028 ft 374 kts 180°
2026-05-08 04:10 25.61354 51.39801 11034 ft 373 kts 178°
2026-05-08 04:11 25.58797 51.40221 11032 ft 372 kts 167°
2026-05-08 04:11 25.56261 51.40795 11030 ft 373 kts 168°
2026-05-08 04:11 25.53721 51.41364 11029 ft 372 kts 168°
2026-05-08 04:11 25.51205 51.41918 11024 ft 372 kts 168°
2026-05-08 04:12 25.48654 51.42482 10862 ft 375 kts 168°
2026-05-08 04:12 25.46102 51.43049 10500 ft 371 kts 168°
2026-05-08 04:12 25.43580 51.43608 10150 ft 367 kts 168°
2026-05-08 04:12 25.41089 51.44159 9798 ft 363 kts 168°
2026-05-08 04:13 25.38661 51.44699 9420 ft 352 kts 168°
2026-05-08 04:13 25.36287 51.45224 9036 ft 343 kts 168°
2026-05-08 04:13 25.33925 51.45746 8668 ft 352 kts 168°
2026-05-08 04:13 25.31510 51.46280 8319 ft 356 kts 168°
2026-05-08 04:14 25.29084 51.46817 7972 ft 356 kts 168°
2026-05-08 04:14 25.26659 51.47352 7620 ft 355 kts 168°
2026-05-08 04:14 25.24247 51.47885 7272 ft 354 kts 169°
2026-05-08 04:14 25.21852 51.48480 6917 ft 352 kts 161°
2026-05-08 04:15 25.19597 51.49516 6580 ft 351 kts 158°
2026-05-08 04:15 25.17318 51.50497 6236 ft 350 kts 160°
2026-05-08 04:15 25.15046 51.51468 5868 ft 349 kts 159°
2026-05-08 04:15 25.12793 51.52466 5514 ft 348 kts 158°
2026-05-08 04:16 25.10554 51.53465 5159 ft 347 kts 158°
2026-05-08 04:16 25.08317 51.54452 4809 ft 346 kts 158°
2026-05-08 04:16 25.06112 51.55417 4452 ft 334 kts 158°
2026-05-08 04:16 25.04713 51.56032 4209 ft 325 kts 158°
2026-05-08 04:17 25.02069 51.57452 3718 ft 306 kts 140°
2026-05-08 04:17 25.00725 51.59178 3358 ft 292 kts 117°
2026-05-08 04:17 25.00223 51.60536 3137 ft 285 kts 102°
2026-05-08 04:17 25.00077 51.62641 3015 ft 269 kts 82°
2026-05-08 04:18 25.00549 51.64537 3019 ft 249 kts 66°
2026-05-08 04:18 25.01177 51.66297 3018 ft 246 kts 67°
2026-05-08 04:18 25.01926 51.67977 3015 ft 243 kts 49°
2026-05-08 04:18 25.03250 51.69104 3020 ft 242 kts 23°
2026-05-08 04:19 25.04900 51.69390 3020 ft 243 kts 353°
2026-05-08 04:19 25.06532 51.68917 3020 ft 243 kts 341°
2026-05-08 04:19 25.08099 51.68242 3021 ft 242 kts 340°
2026-05-08 04:19 25.09618 51.67571 3019 ft 226 kts 340°
2026-05-08 04:20 25.11077 51.66926 2884 ft 227 kts 340°
2026-05-08 04:20 25.12502 51.66297 2619 ft 224 kts 340°
2026-05-08 04:20 25.13975 51.65644 2339 ft 223 kts 340°
2026-05-08 04:20 25.15401 51.65014 2048 ft 216 kts 340°
2026-05-08 04:21 25.16745 51.64418 1783 ft 199 kts 340°
2026-05-08 04:21 25.17973 51.63873 1569 ft 183 kts 340°
2026-05-08 04:21 25.19098 51.63386 1344 ft 170 kts 340°
2026-05-08 04:21 25.20166 51.62914 1120 ft 160 kts 340°
2026-05-08 04:22 25.21162 51.62471 937 ft 150 kts 340°
2026-05-08 04:22 25.22102 51.62059 765 ft 141 kts 339°
2026-05-08 04:22 25.22994 51.61666 594 ft 139 kts 338°
2026-05-08 04:22 25.23886 51.61272 409 ft 137 kts 338°
2026-05-08 04:23 25.24792 51.60888 243 ft 140 kts 336°
2026-05-08 04:23 25.25680 51.60491 33 ft 134 kts 337°
2026-05-08 04:23 25.26449 51.60152 24 ft 102 kts 339°
2026-05-08 04:23 25.26992 51.59908 20 ft 63 kts 339°
2026-05-08 04:24 25.27312 51.59826 25 ft 34 kts
2026-05-08 04:24 25.27431 51.59896 28 ft 11 kts 95°
2026-05-08 04:24 25.27382 51.59943 28 ft 10 kts 158°
2026-05-08 04:24 25.27312 51.59970 27 ft 11 kts 156°
2026-05-08 04:25 25.27237 51.60004 29 ft 12 kts 159°
2026-05-08 04:25 25.27152 51.60042 31 ft 14 kts 158°
2026-05-08 04:25 25.27056 51.60085 31 ft 16 kts 158°
2026-05-08 04:25 25.26946 51.60133 30 ft 16 kts 158°
2026-05-08 04:26 25.26830 51.60186 27 ft 19 kts 158°
2026-05-08 04:26 25.26703 51.60242 30 ft 20 kts 158°
2026-05-08 04:26 25.26571 51.60301 31 ft 21 kts 159°
2026-05-08 04:26 25.26430 51.60361 31 ft 22 kts 158°
2026-05-08 04:27 25.26265 51.60434 26 ft 28 kts 158°
2026-05-08 04:27 25.26094 51.60511 30 ft 20 kts 158°
2026-05-08 04:27 25.26062 51.60616 27 ft 16 kts 65°
2026-05-08 04:27 25.26104 51.60728 27 ft 16 kts 68°
2026-05-08 04:28 25.26146 51.60845 27 ft 17 kts 68°
2026-05-08 04:28 25.26169 51.60938 27 ft 6 kts 116°
2026-05-08 04:28 25.26136 51.60961 27 ft 6 kts 154°
2026-05-08 04:28 25.26104 51.60977 27 ft 4 kts 156°
2026-05-08 04:29 25.26100 51.60979 27 ft 0 kts 156°
2026-05-08 04:29 25.26093 51.60982 27 ft 1 kts 157°
2026-05-08 04:29 25.26087 51.60985 27 ft 1 kts 157°
2026-05-08 04:29 25.26086 51.60985 27 ft 0 kts 157°